User: anonymous   Login
Location: Unspecified
(0.0000°N, 0.0000°E)
Time: 19:27:17
(UTC+00:00)
Language:

XM-2 - Orbit

View from above orbital plane
View from above orbital plane
View from above satellite
View from above satellite

Ground track
Ground track

The orbit data is extracted from the following two-line orbital elements,

1 26724U 01012A   21204.35049465 -.00000040  00000-0  00000-0 0  9995
2 26724   5.3785  72.0433 0009438  41.3166 155.5721  0.99083490 24504
Epoch (UTC): 23 July 2021 08:24:42
Eccentricity: 0.0009438
inclination: 5.3785°
perigee height: 36082 km
apogee height: 36163 km
right ascension of ascending node: 72.0433°
argument of perigee: 41.3166°
revolutions per day: 0.99083490
mean anomaly at epoch: 155.5721°
orbit number at epoch: 2450

The dashed part of the orbit path shows where the satellite is in the earth's shadow,  

DLR